Location: Brunsen
(51.8651°N, 9.8610°E)
Time: 10:51:59
(UTC+00:00)

Cosmos 676 Rocket - Pass Details

Date: 23 May 2024
Orbit: 752 x 781 km, 74.0° (Epoch: 23 June)

Event Time Altitude Azimuth Distance (km) Brightness Sun altitude
Exits shadow 00:42:53 24° 198° (SSW) 1,582 5.0 -15.1°
Maximum altitude 00:46:12 82° 113° (ESE) 796 4.0 -14.9°
Drops below altitude 10° 00:51:33 10° 27° (NNE) 2,349 7.9 -14.6°
Sets 00:53:57 0° 26° (NNE) 3,281 9.2 -14.5°
